Home   Weather   Río Grande   Past weeks

Flag for Argentina Past Weather in Río Grande, Tierra del Fuego, Argentina — Yesterday and Last 2 Weeks

Now
36 °F

Clear.


Feels Like: 29 °F
Forecast: 39 / 57 °F
Wind: 8 mph from Southwest

Location: Rio Grande B. A.

Current Time: Dec 4, 2016 at 5:26:12 am

Latest Report: Dec 4, 2016 at 4:00 am


Visibility: 10 mi

Pressure: 29.56 "Hg

Humidity: 87%

Dew Point: 32 °F

Location of Río GrandeLocation

Past Weather in Río Grande — Graph

°F

Río Grande Temperature Yesterday

Maximum temperature yesterday: 57 °F (at 8:00 pm)
Minimum temperature yesterday: 43 °F (at 5:00 am)
Average temperature yesterday: 50 °F

High & Low Weather Summary for the Past Weeks

 TemperatureHumidityPressure
High72 °F (Nov 21, 3:00 pm)100% (Nov 21, 3:00 am)30.21 "Hg (Nov 21, 3:00 am)
Low32 °F (Nov 22, 11:00 pm)55% (Dec 2, 7:00 pm)29.03 "Hg (Dec 1, 7:00 am)
Average53 °F84%29.66 "Hg
* Reported Nov 19 3:00 am — Dec 4 1:00 am, Río Grande, Weather by CustomWeather, © 2016

Note: Actual official high and low records may vary slightly from our data, if they occured in-between our weather recording intervals... More about our weather records

Advertising

Río Grande Weather History for the Previous 24 Hours

Scroll right to see more
 ConditionsComfort  
Time TempWeatherWind HumidityBarometerVisibility
1:00 am
Sun, Dec 4
41 °FClear.12 mph81%29.53 "Hg10 mi
11:00 pm
Sat, Dec 3
45 °FClear.14 mph87%29.47 "Hg10 mi
9:00 pm54 °FPassing clouds.24 mph82%29.42 "HgN/A
8:00 pm57 °FPassing clouds.1 mph88%29.42 "HgN/A
5:00 pm54 °FMostly cloudy.10 mph94%29.42 "HgN/A
4:00 pm52 °FMostly cloudy.13 mph100%29.42 "HgN/A
3:00 pm52 °FDrizzle. More clouds than sun.12 mph100%29.42 "Hg4 mi
2:00 pm52 °FOvercast.9 mph94%29.47 "Hg5 mi
1:00 pm52 °FDrizzle. Overcast.9 mph100%29.47 "Hg4 mi
12:00 pm52 °FDrizzle. Overcast.7 mph100%29.47 "Hg4 mi
11:00 am54 °FSunny.8 mph94%29.47 "Hg10 mi
10:00 am54 °FSunny.2 mph94%29.47 "Hg10 mi
9:00 am52 °FSunny.2 mph100%29.50 "Hg10 mi
8:00 am48 °FScattered clouds.2 mph94%29.53 "HgN/A
7:00 am46 °FBroken clouds.3 mph93%29.53 "HgN/A
6:00 am45 °FBroken clouds.3 mph93%29.56 "Hg5 mi
5:00 am43 °FScattered clouds.10 mph100%29.53 "HgN/A
Weather by CustomWeather, © 2016

See weather overviewHow to use our weather pages